| time (UTC) | temp C | wind direction | speed KPH | gust KPH | rain 1hr cm | rain 24hr cm | rain mn cm | humidity % | barometer mb |
| 20260507060916 | 7 | 28 | 9.7 | 20.9 | 0.00 | 0.05 | 0.00 | 89 | 1010.7 |
| 20260507060615 | 7 | 29 | 9.7 | 19.3 | 0.00 | 0.05 | 0.00 | 89 | 1010.7 |
| 20260507060316 | 7 | 37 | 9.7 | 16.1 | 0.00 | 0.05 | 0.00 | 89 | 1010.7 |
| 20260507060016 | 7 | 24 | 6.4 | 16.1 | 0.00 | 0.05 | 0.00 | 89 | 1010.7 |
| 20260507055756 | 7 | 22 | 8.0 | 19.3 | 0.00 | 0.05 | 0.00 | 89 | 1010.6 |
| 20260507055416 | 7 | 31 | 6.4 | 16.1 | 0.00 | 0.05 | 0.00 | 89 | 1010.6 |
| 20260507055116 | 7 | 28 | 8.0 | 17.7 | 0.00 | 0.05 | 0.00 | 89 | 1010.6 |
| 20260507054816 | 7 | 29 | 9.7 | 17.7 | 0.00 | 0.05 | 0.00 | 88 | 1010.5 |
| 20260507054515 | 7 | 18 | 9.7 | 16.1 | 0.00 | 0.05 | 0.00 | 88 | 1010.5 |
| 20260507054336 | 7 | 17 | 9.7 | 17.7 | 0.00 | 0.05 | 0.00 | 88 | 1010.5 |
| 20260507053916 | 7 | 17 | 11.3 | 19.3 | 0.00 | 0.05 | 0.00 | 88 | 1010.4 |
| 20260507053616 | 7 | 24 | 8.0 | 14.5 | 0.00 | 0.05 | 0.00 | 88 | 1010.4 |
| 20260507053316 | 7 | 22 | 8.0 | 19.3 | 0.00 | 0.08 | 0.00 | 88 | 1010.4 |
| 20260507053016 | 7 | 26 | 8.0 | 14.5 | 0.00 | 0.08 | 0.00 | 88 | 1010.3 |
| 20260507052716 | 7 | 23 | 9.7 | 19.3 | 0.00 | 0.08 | 0.00 | 88 | 1010.3 |
| 20260507052458 | 7 | 23 | 9.7 | 16.1 | 0.00 | 0.08 | 0.00 | 88 | 1010.3 |
| 20260507052116 | 7 | 14 | 6.4 | 14.5 | 0.00 | 0.10 | 0.00 | 88 | 1010.2 |
| 20260507051816 | 7 | 18 | 6.4 | 12.9 | 0.00 | 0.10 | 0.00 | 88 | 1010.2 |
| 20260507051517 | 7 | 25 | 9.7 | 24.1 | 0.00 | 0.10 | 0.00 | 88 | 1010.2 |
| 20260507051256 | 7 | 36 | 8.0 | 16.1 | 0.00 | 0.10 | 0.00 | 88 | 1010.2 |
| 20260507050916 | 7 | 28 | 8.0 | 16.1 | 0.00 | 0.10 | 0.00 | 88 | 1010.1 |
| 20260507050616 | 7 | 21 | 6.4 | 14.5 | 0.00 | 0.13 | 0.00 | 88 | 1010.1 |
| 20260507050315 | 7 | 31 | 4.8 | 14.5 | 0.00 | 0.13 | 0.00 | 88 | 1010.1 |
| 20260507050016 | 7 | 34 | 8.0 | 16.1 | 0.00 | 0.15 | 0.00 | 88 | 1010.1 |
| 20260507045716 | 7 | 35 | 8.0 | 17.7 | 0.00 | 0.15 | 0.00 | 88 | 1010.1 |
| 20260507045416 | 7 | 35 | 6.4 | 14.5 | 0.00 | 0.15 | 0.00 | 88 | 1010.1 |
| 20260507045159 | 7 | 32 | 6.4 | 19.3 | 0.00 | 0.15 | 0.00 | 88 | 1010.0 |
| 20260507044815 | 7 | 36 | 6.4 | 16.1 | 0.00 | 0.18 | 0.00 | 88 | 1010.0 |
| 20260507044516 | 7 | 31 | 6.4 | 11.3 | 0.00 | 0.18 | 0.00 | 88 | 1009.9 |
| 20260507044215 | 7 | 32 | 6.4 | 14.5 | 0.00 | 0.20 | 0.00 | 88 | 1009.9 |
| 20260507043916 | 7 | 37 | 6.4 | 12.9 | 0.00 | 0.20 | 0.00 | 88 | 1009.8 |
| 20260507043618 | 7 | 29 | 9.7 | 17.7 | 0.00 | 0.23 | 0.00 | 88 | 1009.8 |
| 20260507043316 | 7 | 29 | 9.7 | 20.9 | 0.00 | 0.23 | 0.00 | 88 | 1009.7 |
| 20260507043019 | 7 | 31 | 4.8 | 12.9 | 0.00 | 0.25 | 0.00 | 88 | 1009.7 |
| 20260507042756 | 7 | 33 | 4.8 | 11.3 | 0.00 | 0.28 | 0.00 | 88 | 1009.7 |
| 20260507042418 | 7 | 22 | 3.2 | 9.7 | 0.00 | 0.30 | 0.00 | 88 | 1009.6 |
| 20260507042115 | 7 | 30 | 6.4 | 12.9 | 0.00 | 0.30 | 0.00 | 87 | 1009.6 |
| 20260507041816 | 7 | 34 | 8.0 | 17.7 | 0.00 | 0.30 | 0.00 | 88 | 1009.6 |
| 20260507041516 | 7 | 17 | 3.2 | 8.0 | 0.00 | 0.30 | 0.00 | 87 | 1009.6 |
| 20260507041216 | 7 | 13 | 4.8 | 11.3 | 0.00 | 0.33 | 0.00 | 87 | 1009.5 |
| 20260507040916 | 7 | 42 | 6.4 | 12.9 | 0.00 | 0.33 | 0.00 | 87 | 1009.5 |
| 20260507040656 | 7 | 24 | 6.4 | 11.3 | 0.00 | 0.33 | 0.00 | 87 | 1009.6 |
| 20260507040316 | 7 | 15 | 8.0 | 14.5 | 0.00 | 0.33 | 0.00 | 87 | 1009.5 |
| 20260507040135 | 7 | 30 | 4.8 | 11.3 | 0.00 | 0.33 | 0.00 | 87 | 1009.4 |
| 20260507035716 | 7 | 25 | 6.4 | 16.1 | 0.00 | 0.33 | 0.00 | 87 | 1009.4 |
| 20260507035456 | 7 | 19 | 8.0 | 14.5 | 0.00 | 0.33 | 0.00 | 87 | 1009.3 |
| 20260507035116 | 7 | 33 | 6.4 | 12.9 | 0.00 | 0.33 | 0.00 | 87 | 1009.3 |
| 20260507034816 | 7 | 19 | 8.0 | 17.7 | 0.00 | 0.33 | 0.00 | 87 | 1009.3 |
| 20260507034516 | 7 | 19 | 6.4 | 19.3 | 0.00 | 0.33 | 0.00 | 87 | 1009.4 |
| 20260507034216 | 7 | 14 | 9.7 | 19.3 | 0.00 | 0.33 | 0.00 | 87 | 1009.4 |
| 20260507033915 | 7 | 26 | 4.8 | 11.3 | 0.00 | 0.33 | 0.00 | 87 | 1009.4 |
| 20260507033616 | 7 | 38 | 6.4 | 16.1 | 0.00 | 0.33 | 0.00 | 87 | 1009.4 |
| 20260507033359 | 7 | 32 | 6.4 | 17.7 | 0.00 | 0.33 | 0.00 | 87 | 1009.3 |
| 20260507033016 | 7 | 39 | 8.0 | 16.1 | 0.00 | 0.33 | 0.00 | 87 | 1009.3 |
| 20260507032716 | 7 | 37 | 4.8 | 11.3 | 0.00 | 0.33 | 0.00 | 87 | 1009.3 |
| 20260507032416 | 7 | 41 | 8.0 | 14.5 | 0.00 | 0.33 | 0.00 | 87 | 1009.4 |
| 20260507032116 | 7 | 32 | 8.0 | 14.5 | 0.00 | 0.33 | 0.00 | 87 | 1009.4 |
| 20260507031815 | 7 | 24 | 4.8 | 16.1 | 0.00 | 0.33 | 0.00 | 87 | 1009.4 |
| 20260507031516 | 7 | 44 | 6.4 | 12.9 | 0.00 | 0.33 | 0.00 | 87 | 1009.4 |
| 20260507031259 | 7 | 47 | 4.8 | 8.0 | 0.00 | 0.33 | 0.00 | 87 | 1009.3 |
| 20260507030956 | 7 | 41 | 6.4 | 12.9 | 0.00 | 0.33 | 0.00 | 87 | 1009.3 |
| 20260507030616 | 7 | 33 | 6.4 | 16.1 | 0.00 | 0.33 | 0.00 | 87 | 1009.4 |
| 20260507030316 | 7 | 16 | 4.8 | 14.5 | 0.00 | 0.33 | 0.00 | 87 | 1009.4 |
| 20260507030019 | 7 | 32 | 6.4 | 12.9 | 0.00 | 0.33 | 0.00 | 87 | 1009.4 |
| 20260507025715 | 7 | 21 | 6.4 | 14.5 | 0.00 | 0.33 | 0.00 | 87 | 1009.4 |
| 20260507025416 | 7 | 23 | 8.0 | 16.1 | 0.00 | 0.33 | 0.00 | 87 | 1009.3 |
| 20260507025116 | 7 | 29 | 6.4 | 11.3 | 0.00 | 0.33 | 0.00 | 87 | 1009.3 |
| 20260507024819 | 7 | 27 | 4.8 | 11.3 | 0.00 | 0.33 | 0.00 | 87 | 1009.3 |
| 20260507024515 | 7 | 33 | 6.4 | 11.3 | 0.00 | 0.33 | 0.00 | 87 | 1009.4 |
| 20260507024216 | 7 | 22 | 8.0 | 12.9 | 0.00 | 0.33 | 0.00 | 87 | 1009.4 |
| 20260507023916 | 7 | 11 | 6.4 | 11.3 | 0.00 | 0.36 | 0.00 | 87 | 1009.4 |
| 20260507023615 | 7 | 20 | 4.8 | 14.5 | 0.00 | 0.36 | 0.00 | 87 | 1009.3 |
| 20260507023316 | 7 | 17 | 8.0 | 16.1 | 0.00 | 0.36 | 0.00 | 87 | 1009.3 |
| 20260507023016 | 7 | 20 | 6.4 | 12.9 | 0.00 | 0.38 | 0.00 | 87 | 1009.4 |
| 20260507022718 | 7 | 21 | 4.8 | 12.9 | 0.00 | 0.41 | 0.00 | 87 | 1009.3 |
| 20260507022415 | 7 | 16 | 6.4 | 11.3 | 0.00 | 0.41 | 0.00 | 87 | 1009.4 |
| 20260507022116 | 7 | 18 | 4.8 | 14.5 | 0.00 | 0.41 | 0.00 | 87 | 1009.3 |
| 20260507021816 | 7 | 17 | 4.8 | 9.7 | 0.00 | 0.43 | 0.00 | 87 | 1009.3 |
| 20260507021515 | 7 | 12 | 6.4 | 11.3 | 0.00 | 0.43 | 0.00 | 87 | 1009.3 |
| 20260507021219 | 7 | 12 | 6.4 | 11.3 | 0.00 | 0.48 | 0.00 | 87 | 1009.2 |
| 20260507020916 | 7 | 10 | 6.4 | 14.5 | 0.00 | 0.51 | 0.00 | 87 | 1009.3 |
| 20260507020616 | 7 | 10 | 6.4 | 16.1 | 0.00 | 0.51 | 0.00 | 87 | 1009.2 |
| 20260507020331 | 7 | 6 | 6.4 | 12.9 | 0.00 | 0.56 | 0.00 | 87 | 1009.2 |
| 20260507020016 | 7 | 19 | 6.4 | 11.3 | 0.00 | 0.58 | 0.00 | 87 | 1009.2 |
| 20260507015716 | 7 | 14 | 8.0 | 16.1 | 0.00 | 0.61 | 0.00 | 87 | 1009.1 |
| 20260507015416 | 7 | 25 | 8.0 | 14.5 | 0.00 | 0.64 | 0.00 | 87 | 1009.1 |
| 20260507015116 | 7 | 20 | 4.8 | 14.5 | 0.00 | 0.66 | 0.00 | 87 | 1009.2 |
| 20260507014816 | 7 | 15 | 6.4 | 14.5 | 0.00 | 0.71 | 0.00 | 87 | 1009.2 |
| 20260507014516 | 7 | 13 | 6.4 | 12.9 | 0.00 | 0.74 | 0.00 | 87 | 1009.2 |
| 20260507014215 | 7 | 10 | 6.4 | 14.5 | 0.00 | 0.76 | 0.00 | 87 | 1009.2 |
| 20260507013956 | 7 | 15 | 6.4 | 11.3 | 0.00 | 0.79 | 0.00 | 87 | 1009.1 |
| 20260507013616 | 7 | 28 | 8.0 | 17.7 | 0.00 | 0.81 | 0.00 | 87 | 1009.1 |
| 20260507013316 | 7 | 19 | 8.0 | 16.1 | 0.00 | 0.84 | 0.00 | 87 | 1009.0 |
| 20260507013016 | 7 | 30 | 6.4 | 12.9 | 0.00 | 0.86 | 0.00 | 87 | 1009.0 |
| 20260507012716 | 7 | 14 | 8.0 | 16.1 | 0.00 | 0.86 | 0.00 | 87 | 1008.9 |
| 20260507012419 | 7 | 25 | 6.4 | 14.5 | 0.00 | 0.89 | 0.00 | 87 | 1008.9 |
| 20260507012115 | 7 | 18 | 9.7 | 20.9 | 0.00 | 0.89 | 0.00 | 87 | 1008.8 |
| 20260507011816 | 7 | 26 | 9.7 | 20.9 | 0.00 | 0.94 | 0.00 | 87 | 1008.7 |
| 20260507011556 | 7 | 30 | 6.4 | 12.9 | 0.00 | 0.99 | 0.00 | 87 | 1008.7 |
| 20260507010916 | 7 | 34 | 6.4 | 11.3 | 0.00 | 1.04 | 0.00 | 87 | 1008.7 |
| 20260507010619 | 7 | 14 | 6.4 | 14.5 | 0.00 | 1.09 | 0.00 | 87 | 1008.7 |
| 20260507010316 | 7 | 24 | 8.0 | 17.7 | 0.00 | 1.14 | 0.00 | 87 | 1008.6 |
| 20260507010016 | 7 | 7 | 4.8 | 9.7 | 0.00 | 1.17 | 0.00 | 87 | 1008.6 |
| 20260507005716 | 7 | 29 | 8.0 | 16.1 | 0.00 | 1.17 | 0.00 | 87 | 1008.5 |
| 20260507005428 | 7 | 23 | 6.4 | 25.7 | 0.00 | 1.17 | 0.00 | 87 | 1008.4 |
| 20260507005116 | 7 | 18 | 6.4 | 12.9 | 0.00 | 1.19 | 0.00 | 87 | 1008.4 |
| 20260507004816 | 7 | 29 | 4.8 | 9.7 | 0.00 | 1.19 | 0.00 | 87 | 1008.4 |
| 20260507004516 | 7 | 35 | 6.4 | 14.5 | 0.00 | 1.19 | 0.00 | 87 | 1008.5 |
| 20260507004216 | 7 | 15 | 6.4 | 12.9 | 0.00 | 1.19 | 0.00 | 87 | 1008.6 |
| 20260507003956 | 7 | 18 | 6.4 | 14.5 | 0.00 | 1.19 | 0.00 | 87 | 1008.6 |
| 20260507003616 | 7 | 27 | 6.4 | 12.9 | 0.00 | 1.19 | 0.00 | 88 | 1008.6 |
| 20260507003316 | 7 | 30 | 6.4 | 16.1 | 0.00 | 1.19 | 0.00 | 88 | 1008.6 |
| 20260507003015 | 7 | 30 | 4.8 | 12.9 | 0.00 | 1.19 | 0.00 | 88 | 1008.5 |
| 20260507002716 | 7 | 0 | 1.6 | 9.7 | 0.00 | 1.19 | 0.00 | 88 | 1008.4 |
| 20260507002416 | 7 | 21 | 8.0 | 16.1 | 0.00 | 1.19 | 0.00 | 88 | 1008.3 |
| 20260507002116 | 7 | 29 | 9.7 | 17.7 | 0.00 | 1.19 | 0.00 | 88 | 1008.3 |
| 20260507001815 | 7 | 28 | 8.0 | 14.5 | 0.00 | 1.22 | 0.00 | 88 | 1008.4 |
| 20260507001516 | 7 | 33 | 6.4 | 12.9 | 0.00 | 1.22 | 0.00 | 88 | 1008.5 |
| 20260507001216 | 7 | 45 | 6.4 | 14.5 | 0.00 | 1.24 | 0.00 | 88 | 1008.6 |
| 20260507000919 | 7 | 28 | 4.8 | 11.3 | 0.00 | 1.24 | 0.00 | 88 | 1008.6 |
| 20260507000615 | 7 | 26 | 9.7 | 19.3 | 0.00 | 1.24 | 0.00 | 88 | 1008.5 |
| 20260507000316 | 7 | 29 | 6.4 | 16.1 | 0.00 | 1.27 | 0.00 | 88 | 1008.6 |
| 20260507000056 | 7 | 25 | 4.8 | 16.1 | 0.00 | 1.27 | 0.00 | 88 | 1008.5 |
| 20260506235719 | 7 | 25 | 9.7 | 17.7 | 0.00 | 1.27 | 0.00 | 88 | 1008.4 |
| 20260506235416 | 7 | 13 | 8.0 | 17.7 | 0.00 | 1.32 | 0.00 | 88 | 1008.4 |
| 20260506235156 | 7 | 17 | 9.7 | 17.7 | 0.00 | 1.37 | 0.00 | 88 | 1008.4 |
| 20260506234816 | 7 | 13 | 8.0 | 20.9 | 0.00 | 1.37 | 0.00 | 88 | 1008.4 |
| 20260506234516 | 7 | 12 | 11.3 | 22.5 | 0.00 | 1.42 | 0.00 | 88 | 1008.5 |
| 20260506234216 | 7 | 6 | 14.5 | 22.5 | 0.00 | 1.45 | 0.00 | 88 | 1008.4 |
| 20260506233916 | 7 | 7 | 11.3 | 22.5 | 0.00 | 1.47 | 0.00 | 87 | 1008.5 |
| 20260506233615 | 8 | 3 | 8.0 | 19.3 | 0.00 | 1.52 | 0.00 | 88 | 1008.5 |
| 20260506233359 | 8 | 15 | 8.0 | 16.1 | 0.00 | 1.52 | 0.00 | 87 | 1008.5 |
| 20260506233016 | 8 | 20 | 8.0 | 14.5 | 0.00 | 1.55 | 0.00 | 87 | 1008.5 |
| 20260506232716 | 8 | 11 | 11.3 | 22.5 | 0.00 | 1.55 | 0.00 | 87 | 1008.4 |
| 20260506232416 | 8 | 8 | 11.3 | 25.7 | 0.00 | 1.55 | 0.00 | 87 | 1008.4 |
| 20260506232116 | 8 | 24 | 9.7 | 17.7 | 0.00 | 1.55 | 0.00 | 87 | 1008.3 |
| 20260506231856 | 8 | 38 | 8.0 | 19.3 | 0.00 | 1.55 | 0.00 | 87 | 1008.3 |
| 20260506231515 | 8 | 22 | 8.0 | 16.1 | 0.00 | 1.55 | 0.00 | 87 | 1008.2 |
| 20260506231216 | 8 | 26 | 8.0 | 20.9 | 0.00 | 1.55 | 0.00 | 87 | 1008.2 |
| 20260506230936 | 8 | 33 | 12.9 | 24.1 | 0.00 | 1.55 | 0.00 | 87 | 1008.2 |
| 20260506230316 | 8 | 33 | 11.3 | 17.7 | 0.00 | 1.55 | 0.00 | 87 | 1008.2 |
| 20260506230016 | 8 | 21 | 6.4 | 14.5 | 0.00 | 1.55 | 0.00 | 87 | 1008.2 |
| 20260506225716 | 8 | 36 | 9.7 | 17.7 | 0.00 | 1.55 | 0.00 | 87 | 1008.2 |
| 20260506225415 | 8 | 34 | 9.7 | 20.9 | 0.00 | 1.55 | 0.00 | 87 | 1008.2 |
| 20260506225116 | 8 | 35 | 6.4 | 11.3 | 0.00 | 1.55 | 0.00 | 87 | 1008.1 |
| 20260506224816 | 8 | 35 | 11.3 | 20.9 | 0.00 | 1.55 | 0.00 | 87 | 1008.1 |
| 20260506224516 | 8 | 33 | 8.0 | 14.5 | 0.00 | 1.55 | 0.00 | 87 | 1008.2 |
| 20260506224216 | 8 | 42 | 9.7 | 19.3 | 0.00 | 1.55 | 0.00 | 87 | 1008.2 |
| 20260506223917 | 8 | 32 | 6.4 | 12.9 | 0.00 | 1.55 | 0.00 | 87 | 1008.1 |
| 20260506223619 | 9 | 31 | 9.7 | 17.7 | 0.00 | 1.55 | 0.00 | 87 | 1008.0 |
| 20260506223315 | 9 | 19 | 6.4 | 14.5 | 0.00 | 1.55 | 0.00 | 86 | 1008.0 |
| 20260506223019 | 9 | 30 | 8.0 | 16.1 | 0.00 | 1.55 | 0.00 | 86 | 1008.0 |
| 20260506222715 | 9 | 29 | 9.7 | 16.1 | 0.00 | 1.55 | 0.00 | 86 | 1007.9 |
| 20260506222416 | 9 | 28 | 8.0 | 16.1 | 0.00 | 1.55 | 0.00 | 86 | 1007.9 |
| 20260506222115 | 9 | 20 | 9.7 | 17.7 | 0.00 | 1.55 | 0.00 | 86 | 1007.8 |
| 20260506221856 | 9 | 27 | 8.0 | 19.3 | 0.00 | 1.55 | 0.00 | 87 | 1007.7 |
| 20260506221516 | 9 | 24 | 4.8 | 11.3 | 0.00 | 1.55 | 0.00 | 86 | 1007.7 |
| 20260506221215 | 9 | 34 | 6.4 | 17.7 | 0.00 | 1.55 | 0.00 | 86 | 1007.6 |
| 20260506220955 | 9 | 33 | 9.7 | 16.1 | 0.00 | 1.55 | 0.00 | 86 | 1007.6 |
| 20260506220616 | 9 | 19 | 4.8 | 9.7 | 0.00 | 1.55 | 0.00 | 86 | 1007.6 |
| 20260506220316 | 9 | 28 | 6.4 | 14.5 | 0.00 | 1.55 | 0.00 | 86 | 1007.6 |
| 20260506220019 | 9 | 28 | 11.3 | 22.5 | 0.00 | 1.55 | 0.00 | 86 | 1007.6 |
| 20260506215716 | 9 | 29 | 9.7 | 16.1 | 0.00 | 1.55 | 1.55 | 86 | 1007.7 |
| 20260506215456 | 9 | 28 | 8.0 | 16.1 | 0.00 | 1.55 | 1.55 | 87 | 1007.7 |
| 20260506215115 | 9 | 30 | 6.4 | 19.3 | 0.00 | 1.55 | 1.55 | 87 | 1007.7 |
| 20260506214816 | 9 | 30 | 8.0 | 16.1 | 0.00 | 1.55 | 1.55 | 87 | 1007.7 |
| 20260506214516 | 9 | 21 | 8.0 | 16.1 | 0.00 | 1.55 | 1.55 | 87 | 1007.7 |
| 20260506214216 | 9 | 48 | 3.2 | 11.3 | 0.00 | 1.55 | 1.55 | 87 | 1007.7 |
| 20260506213919 | 9 | 30 | 4.8 | 9.7 | 0.00 | 1.55 | 1.55 | 87 | 1007.7 |
| 20260506213616 | 9 | 35 | 4.8 | 11.3 | 0.00 | 1.55 | 1.55 | 87 | 1007.6 |
| 20260506213356 | 9 | 25 | 6.4 | 14.5 | 0.00 | 1.55 | 1.55 | 87 | 1007.6 |
| 20260506213015 | 9 | 14 | 6.4 | 12.9 | 0.00 | 1.55 | 1.55 | 87 | 1007.7 |
| 20260506212716 | 9 | 20 | 4.8 | 11.3 | 0.00 | 1.55 | 1.55 | 87 | 1007.7 |
| 20260506212416 | 9 | 3 | 3.2 | 9.7 | 0.00 | 1.55 | 1.55 | 87 | 1007.7 |
| 20260506212116 | 9 | 28 | 4.8 | 6.4 | 0.00 | 1.55 | 1.55 | 86 | 1007.7 |
| 20260506211922 | 9 | 36 | 1.6 | 4.8 | 0.00 | 1.55 | 1.55 | 86 | 1007.7 |
| 20260506211216 | 9 | 38 | 6.4 | 16.1 | 0.00 | 1.55 | 1.55 | 86 | 1007.6 |
| 20260506210915 | 9 | 33 | 6.4 | 12.9 | 0.00 | 1.55 | 1.55 | 86 | 1007.6 |
| 20260506210616 | 9 | 27 | 4.8 | 11.3 | 0.00 | 1.55 | 1.55 | 86 | 1007.6 |
| 20260506210356 | 9 | 38 | 4.8 | 12.9 | 0.00 | 1.55 | 1.55 | 86 | 1007.6 |
| 20260506210016 | 9 | 27 | 3.2 | 11.3 | 0.00 | 1.55 | 1.55 | 86 | 1007.7 |
| 20260506205716 | 9 | 25 | 3.2 | 8.0 | 0.00 | 1.55 | 1.55 | 86 | 1007.6 |
| 20260506205432 | 9 | 40 | 6.4 | 12.9 | 0.00 | 1.55 | 1.55 | 86 | 1007.5 |
| 20260506205116 | 9 | 33 | 6.4 | 14.5 | 0.00 | 1.55 | 1.55 | 86 | 1007.6 |
| 20260506204815 | 9 | 45 | 3.2 | 8.0 | 0.00 | 1.55 | 1.55 | 86 | 1007.6 |
| 20260506204516 | 9 | 48 | 4.8 | 11.3 | 0.00 | 1.55 | 1.55 | 86 | 1007.6 |
| 20260506204215 | 9 | 42 | 3.2 | 9.7 | 0.00 | 1.55 | 1.55 | 86 | 1007.7 |
| 20260506203917 | 9 | 51 | 3.2 | 6.4 | 0.00 | 1.55 | 1.55 | 86 | 1007.7 |
| 20260506203616 | 9 | 52 | 4.8 | 11.3 | 0.00 | 1.55 | 1.55 | 86 | 1007.7 |
| 20260506203316 | 9 | 60 | 4.8 | 9.7 | 0.00 | 1.55 | 1.55 | 86 | 1007.8 |
| 20260506203016 | 9 | 50 | 6.4 | 12.9 | 0.00 | 1.55 | 1.55 | 86 | 1007.7 |
| 20260506202715 | 10 | 46 | 6.4 | 14.5 | 0.00 | 1.55 | 1.55 | 86 | 1007.7 |
| 20260506202416 | 10 | 41 | 6.4 | 11.3 | 0.00 | 1.55 | 1.55 | 86 | 1007.7 |
| 20260506202115 | 10 | 41 | 8.0 | 14.5 | 0.00 | 1.55 | 1.55 | 87 | 1007.6 |
| 20260506201819 | 10 | 44 | 4.8 | 12.9 | 0.00 | 1.55 | 1.55 | 86 | 1007.5 |
| 20260506201516 | 10 | 22 | 6.4 | 14.5 | 0.00 | 1.55 | 1.55 | 86 | 1007.3 |
| 20260506201215 | 10 | 33 | 6.4 | 12.9 | 0.00 | 1.55 | 1.55 | 87 | 1007.3 |
| 20260506200959 | 10 | 36 | 8.0 | 14.5 | 0.00 | 1.55 | 1.55 | 87 | 1007.2 |
| 20260506200615 | 10 | 36 | 8.0 | 14.5 | 0.00 | 1.55 | 1.55 | 87 | 1007.2 |
| 20260506200316 | 10 | 35 | 8.0 | 17.7 | 0.00 | 1.55 | 1.55 | 87 | 1007.2 |
| 20260506200055 | 10 | 22 | 3.2 | 8.0 | 0.00 | 1.55 | 1.55 | 87 | 1007.2 |
| 20260506195716 | 10 | 25 | 6.4 | 11.3 | 0.00 | 1.55 | 1.55 | 87 | 1007.2 |
| 20260506195416 | 10 | 30 | 4.8 | 9.7 | 0.00 | 1.55 | 1.55 | 87 | 1007.1 |
| 20260506195116 | 10 | 38 | 4.8 | 12.9 | 0.00 | 1.55 | 1.55 | 87 | 1007.0 |
| 20260506194816 | 10 | 40 | 6.4 | 11.3 | 0.00 | 1.55 | 1.55 | 87 | 1007.0 |
| 20260506194515 | 10 | 29 | 4.8 | 12.9 | 0.00 | 1.55 | 1.55 | 87 | 1007.1 |
| 20260506194216 | 10 | 27 | 4.8 | 9.7 | 0.00 | 1.55 | 1.55 | 87 | 1007.1 |
| 20260506193918 | 10 | 38 | 4.8 | 6.4 | 0.00 | 1.55 | 1.55 | 86 | 1007.2 |
| 20260506193616 | 10 | 31 | 4.8 | 8.0 | 0.00 | 1.55 | 1.55 | 86 | 1007.2 |
| 20260506193316 | 10 | 19 | 4.8 | 11.3 | 0.00 | 1.55 | 1.55 | 86 | 1007.0 |
| 20260506193039 | 10 | 29 | 9.7 | 17.7 | 0.00 | 1.55 | 1.55 | 85 | 1007.0 |
| 20260506192415 | 10 | 23 | 6.4 | 12.9 | 0.00 | 1.55 | 1.55 | 85 | 1007.0 |
| 20260506192116 | 10 | 19 | 9.7 | 20.9 | 0.00 | 1.55 | 1.55 | 85 | 1007.0 |
| 20260506191818 | 10 | 18 | 8.0 | 16.1 | 0.00 | 1.55 | 1.55 | 86 | 1007.0 |
| 20260506191516 | 10 | 24 | 9.7 | 19.3 | 0.00 | 1.55 | 1.55 | 86 | 1007.0 |
| 20260506191216 | 10 | 25 | 8.0 | 17.7 | 0.00 | 1.55 | 1.55 | 86 | 1007.0 |
| 20260506190916 | 10 | 26 | 8.0 | 17.7 | 0.00 | 1.55 | 1.55 | 86 | 1007.1 |
| 20260506190659 | 10 | 22 | 8.0 | 16.1 | 0.00 | 1.55 | 1.55 | 86 | 1007.0 |
| 20260506190315 | 10 | 22 | 6.4 | 16.1 | 0.00 | 1.55 | 1.55 | 87 | 1007.1 |
| 20260506190016 | 10 | 23 | 8.0 | 17.7 | 0.00 | 1.55 | 1.55 | 87 | 1006.9 |
| 20260506185715 | 10 | 20 | 8.0 | 19.3 | 0.00 | 1.55 | 1.55 | 87 | 1006.9 |
| 20260506185416 | 10 | 22 | 6.4 | 17.7 | 0.00 | 1.55 | 1.55 | 87 | 1006.7 |
| 20260506185116 | 10 | 20 | 8.0 | 14.5 | 0.00 | 1.55 | 1.55 | 87 | 1006.8 |
| 20260506184816 | 10 | 27 | 8.0 | 19.3 | 0.00 | 1.55 | 1.55 | 87 | 1006.8 |
| 20260506184516 | 10 | 24 | 4.8 | 11.3 | 0.00 | 1.55 | 1.55 | 87 | 1006.7 |
| 20260506184255 | 10 | 24 | 6.4 | 14.5 | 0.00 | 1.55 | 1.55 | 87 | 1006.7 |
| 20260506183916 | 10 | 10 | 8.0 | 19.3 | 0.00 | 1.55 | 1.55 | 87 | 1006.7 |
| 20260506183615 | 11 | 10 | 6.4 | 11.3 | 0.00 | 1.55 | 1.55 | 87 | 1006.8 |
| 20260506183316 | 11 | 22 | 6.4 | 14.5 | 0.00 | 1.55 | 1.55 | 87 | 1006.7 |
| 20260506183016 | 11 | 31 | 6.4 | 12.9 | 0.00 | 1.55 | 1.55 | 87 | 1006.7 |
| 20260506182716 | 11 | 28 | 4.8 | 14.5 | 0.00 | 1.55 | 1.55 | 87 | 1006.7 |
| 20260506182416 | 11 | 36 | 3.2 | 11.3 | 0.00 | 1.55 | 1.55 | 87 | 1006.7 |
| 20260506182156 | 11 | 32 | 4.8 | 11.3 | 0.00 | 1.55 | 1.55 | 87 | 1006.6 |
| 20260506181816 | 11 | 35 | 4.8 | 11.3 | 0.00 | 1.55 | 1.55 | 87 | 1006.6 |
| 20260506181515 | 11 | 35 | 8.0 | 12.9 | 0.00 | 1.55 | 1.55 | 87 | 1006.5 |
| 20260506181336 | 11 | 32 | 6.4 | 16.1 | 0.00 | 1.55 | 1.55 | 87 | 1006.4 |
| 20260506180916 | 11 | 26 | 3.2 | 9.7 | 0.00 | 1.55 | 1.55 | 87 | 1006.4 |
| 20260506180616 | 11 | 12 | 4.8 | 11.3 | 0.00 | 1.55 | 1.55 | 86 | 1006.3 |
| 20260506180315 | 11 | 23 | 6.4 | 17.7 | 0.00 | 1.55 | 1.55 | 86 | 1006.3 |
| 20260506180016 | 11 | 18 | 6.4 | 14.5 | 0.00 | 1.55 | 1.55 | 86 | 1006.3 |
| 20260506175716 | 11 | 26 | 6.4 | 11.3 | 0.00 | 1.55 | 1.55 | 86 | 1006.3 |
| 20260506175415 | 11 | 12 | 4.8 | 11.3 | 0.00 | 1.55 | 1.55 | 86 | 1006.3 |
| 20260506175115 | 11 | 20 | 4.8 | 11.3 | 0.00 | 1.55 | 1.55 | 86 | 1006.3 |
| 20260506174816 | 11 | 17 | 4.8 | 12.9 | 0.00 | 1.55 | 1.55 | 86 | 1006.3 |
| 20260506174559 | 11 | 17 | 6.4 | 11.3 | 0.00 | 1.55 | 1.55 | 86 | 1006.3 |
| 20260506174217 | 11 | 9 | 4.8 | 11.3 | 0.00 | 1.55 | 1.55 | 86 | 1006.3 |
| 20260506173916 | 11 | 33 | 8.0 | 12.9 | 0.00 | 1.55 | 1.55 | 86 | 1006.3 |
| 20260506173616 | 11 | 40 | 6.4 | 11.3 | 0.00 | 1.55 | 1.55 | 87 | 1006.3 |
| 20260506173315 | 11 | 18 | 4.8 | 8.0 | 0.00 | 1.55 | 1.55 | 86 | 1006.3 |
| 20260506173016 | 11 | 11 | 6.4 | 11.3 | 0.00 | 1.55 | 1.55 | 86 | 1006.3 |
| 20260506172756 | 11 | 12 | 4.8 | 11.3 | 0.00 | 1.55 | 1.55 | 86 | 1006.3 |
| 20260506172416 | 11 | 17 | 4.8 | 8.0 | 0.00 | 1.55 | 1.55 | 86 | 1006.3 |
| 20260506172236 | 11 | 13 | 6.4 | 16.1 | 0.00 | 1.55 | 1.55 | 86 | 1006.3 |
| 20260506171816 | 11 | 6 | 8.0 | 16.1 | 0.00 | 1.55 | 1.55 | 85 | 1006.4 |
| 20260506171516 | 11 | 13 | 8.0 | 14.5 | 0.00 | 1.55 | 1.55 | 85 | 1006.4 |
| 20260506171215 | 11 | 12 | 6.4 | 11.3 | 0.00 | 1.55 | 1.55 | 85 | 1006.4 |
| 20260506170916 | 11 | 12 | 6.4 | 14.5 | 0.00 | 1.55 | 1.55 | 85 | 1006.4 |
| 20260506170616 | 11 | 6 | 8.0 | 19.3 | 0.00 | 1.55 | 1.55 | 85 | 1006.4 |
| 20260506170316 | 11 | 15 | 8.0 | 14.5 | 0.00 | 1.55 | 1.55 | 86 | 1006.3 |
| 20260506170016 | 11 | 10 | 6.4 | 16.1 | 0.00 | 1.55 | 1.55 | 86 | 1006.3 |
| 20260506165716 | 11 | 10 | 8.0 | 12.9 | 0.00 | 1.55 | 1.55 | 85 | 1006.3 |
| 20260506165416 | 11 | 7 | 12.9 | 24.1 | 0.00 | 1.55 | 1.55 | 85 | 1006.2 |
| 20260506165115 | 11 | 15 | 9.7 | 25.7 | 0.00 | 1.55 | 1.55 | 85 | 1006.2 |
| 20260506164816 | 12 | 13 | 11.3 | 22.5 | 0.00 | 1.55 | 1.55 | 85 | 1006.3 |
| 20260506164516 | 12 | 7 | 8.0 | 16.1 | 0.00 | 1.55 | 1.55 | 85 | 1006.2 |
| 20260506164256 | 12 | 20 | 8.0 | 16.1 | 0.00 | 1.55 | 1.55 | 85 | 1006.3 |
| 20260506164036 | 12 | 7 | 11.3 | 20.9 | 0.00 | 1.55 | 1.55 | 85 | 1006.3 |
| 20260506163616 | 12 | 4 | 8.0 | 16.1 | 0.00 | 1.55 | 1.55 | 85 | 1006.3 |
| 20260506163316 | 12 | 9 | 8.0 | 19.3 | 0.00 | 1.55 | 1.55 | 85 | 1006.4 |
| 20260506163015 | 12 | 6 | 11.3 | 16.1 | 0.00 | 1.55 | 1.55 | 85 | 1006.3 |
| 20260506162716 | 12 | 10 | 8.0 | 16.1 | 0.00 | 1.55 | 1.55 | 85 | 1006.4 |
| 20260506162419 | 12 | 20 | 4.8 | 11.3 | 0.00 | 1.55 | 1.55 | 85 | 1006.4 |
| 20260506162116 | 12 | 3 | 4.8 | 9.7 | 0.00 | 1.55 | 1.55 | 85 | 1006.4 |
| 20260506161856 | 12 | 7 | 6.4 | 16.1 | 0.00 | 1.55 | 1.55 | 85 | 1006.4 |
| 20260506161516 | 12 | 10 | 8.0 | 14.5 | 0.00 | 1.55 | 1.55 | 85 | 1006.3 |
| 20260506161216 | 12 | 10 | 6.4 | 14.5 | 0.00 | 1.55 | 1.55 | 85 | 1006.4 |
| 20260506160915 | 12 | 5 | 8.0 | 14.5 | 0.00 | 1.55 | 1.55 | 85 | 1006.4 |
| 20260506160616 | 12 | 17 | 9.7 | 16.1 | 0.00 | 1.55 | 1.55 | 85 | 1006.4 |
| 20260506160439 | 12 | 18 | 8.0 | 14.5 | 0.00 | 1.55 | 1.55 | 85 | 1006.4 |
| 20260506160016 | 12 | 11 | 9.7 | 17.7 | 0.00 | 1.55 | 1.55 | 85 | 1006.4 |
| 20260506155716 | 12 | 1 | 6.4 | 11.3 | 0.00 | 1.55 | 1.55 | 85 | 1006.4 |
| 20260506155455 | 12 | 10 | 11.3 | 19.3 | 0.00 | 1.55 | 1.55 | 85 | 1006.3 |
| 20260506155116 | 12 | 8 | 9.7 | 17.7 | 0.00 | 1.55 | 1.55 | 86 | 1006.3 |
| 20260506154815 | 12 | 13 | 8.0 | 14.5 | 0.00 | 1.55 | 1.55 | 86 | 1006.3 |
| 20260506154516 | 12 | 4 | 6.4 | 14.5 | 0.00 | 1.55 | 1.55 | 86 | 1006.4 |
| 20260506154215 | 12 | 12 | 6.4 | 16.1 | 0.00 | 1.55 | 1.55 | 86 | 1006.4 |
| 20260506153916 | 12 | 11 | 9.7 | 20.9 | 0.00 | 1.55 | 1.55 | 87 | 1006.4 |
| 20260506153616 | 12 | 9 | 8.0 | 16.1 | 0.00 | 1.55 | 1.55 | 87 | 1006.4 |
| 20260506153319 | 12 | 13 | 8.0 | 17.7 | 0.00 | 1.55 | 1.55 | 87 | 1006.4 |
| 20260506153016 | 12 | 7 | 6.4 | 12.9 | 0.00 | 1.55 | 1.55 | 87 | 1006.4 |
| 20260506152716 | 12 | 11 | 8.0 | 14.5 | 0.00 | 1.55 | 1.55 | 86 | 1006.5 |
| 20260506152416 | 12 | 12 | 9.7 | 19.3 | 0.00 | 1.55 | 1.55 | 86 | 1006.4 |
| 20260506152156 | 12 | 15 | 6.4 | 12.9 | 0.00 | 1.55 | 1.55 | 86 | 1006.5 |
| 20260506151816 | 12 | 18 | 6.4 | 11.3 | 0.00 | 1.55 | 1.55 | 86 | 1006.5 |
| 20260506151516 | 12 | 14 | 6.4 | 12.9 | 0.00 | 1.55 | 1.55 | 86 | 1006.5 |
| 20260506151216 | 12 | 15 | 8.0 | 14.5 | 0.00 | 1.55 | 1.55 | 86 | 1006.3 |
| 20260506150916 | 12 | 8 | 9.7 | 19.3 | 0.00 | 1.55 | 1.55 | 86 | 1006.3 |
| 20260506150615 | 12 | 9 | 9.7 | 17.7 | 0.00 | 1.55 | 1.55 | 86 | 1006.3 |
| 20260506150316 | 12 | 14 | 9.7 | 19.3 | 0.00 | 1.55 | 1.55 | 86 | 1006.3 |
| 20260506150016 | 12 | 360 | 6.4 | 17.7 | 0.00 | 1.55 | 1.55 | 87 | 1006.3 |
| 20260506145716 | 12 | 1 | 6.4 | 16.1 | 0.00 | 1.55 | 1.55 | 87 | 1006.4 |
| 20260506145416 | 12 | 7 | 8.0 | 16.1 | 0.00 | 1.55 | 1.55 | 87 | 1006.3 |
| 20260506145116 | 12 | 10 | 6.4 | 12.9 | 0.00 | 1.55 | 1.55 | 87 | 1006.3 |
| 20260506144819 | 12 | 13 | 6.4 | 12.9 | 0.00 | 1.55 | 1.55 | 87 | 1006.3 |
| 20260506144515 | 12 | 6 | 6.4 | 14.5 | 0.00 | 1.55 | 1.55 | 87 | 1006.3 |
| 20260506144219 | 12 | 8 | 8.0 | 16.1 | 0.00 | 1.55 | 1.55 | 87 | 1006.3 |
| 20260506143916 | 12 | 2 | 6.4 | 14.5 | 0.00 | 1.55 | 1.55 | 87 | 1006.3 |
| 20260506143616 | 12 | 13 | 4.8 | 11.3 | 0.00 | 1.55 | 1.55 | 87 | 1006.3 |
| 20260506143316 | 12 | 10 | 3.2 | 8.0 | 0.00 | 1.55 | 1.55 | 87 | 1006.3 |
| 20260506143016 | 12 | 7 | 4.8 | 9.7 | 0.00 | 1.55 | 1.55 | 87 | 1006.3 |
| 20260506142716 | 12 | 13 | 4.8 | 8.0 | 0.00 | 1.55 | 1.55 | 87 | 1006.3 |
| 20260506142415 | 12 | 2 | 6.4 | 12.9 | 0.00 | 1.55 | 1.55 | 87 | 1006.3 |
| 20260506142116 | 12 | 13 | 6.4 | 11.3 | 0.00 | 1.55 | 1.55 | 87 | 1006.2 |
| 20260506141858 | 12 | 8 | 8.0 | 14.5 | 0.00 | 1.55 | 1.55 | 87 | 1006.1 |
| 20260506141516 | 12 | 7 | 6.4 | 12.9 | 0.00 | 1.55 | 1.55 | 86 | 1006.2 |
| 20260506141216 | 12 | 355 | 6.4 | 12.9 | 0.00 | 1.55 | 1.55 | 86 | 1006.2 |
| 20260506140916 | 12 | 352 | 6.4 | 14.5 | 0.00 | 1.55 | 1.55 | 86 | 1006.1 |
| 20260506140702 | 12 | 4 | 8.0 | 16.1 | 0.00 | 1.55 | 1.55 | 86 | 1006.0 |
| 20260506140315 | 12 | 4 | 4.8 | 11.3 | 0.00 | 1.55 | 1.55 | 86 | 1006.1 |
| 20260506140016 | 12 | 335 | 3.2 | 6.4 | 0.00 | 1.55 | 1.55 | 86 | 1006.2 |
| 20260506135723 | 12 | 343 | 4.8 | 8.0 | 0.00 | 1.55 | 1.55 | 86 | 1006.1 |
| 20260506135416 | 12 | 334 | 3.2 | 6.4 | 0.00 | 1.55 | 1.55 | 87 | 1006.1 |
| 20260506135156 | 12 | 331 | 4.8 | 8.0 | 0.00 | 1.55 | 1.55 | 87 | 1006.1 |
| 20260506134831 | 12 | 0 | 6.4 | 11.3 | 0.00 | 1.55 | 1.55 | 87 | 1006.1 |
| 20260506134515 | 12 | 314 | 4.8 | 8.0 | 0.00 | 1.55 | 1.55 | 88 | 1006.1 |
| 20260506134216 | 12 | 310 | 4.8 | 11.3 | 0.00 | 1.55 | 1.55 | 88 | 1006.0 |
| 20260506133917 | 12 | 326 | 8.0 | 12.9 | 0.00 | 1.55 | 1.55 | 88 | 1006.0 |
| 20260506133616 | 12 | 329 | 6.4 | 12.9 | 0.00 | 1.55 | 1.55 | 88 | 1006.0 |
| 20260506133355 | 12 | 329 | 4.8 | 9.7 | 0.00 | 1.55 | 1.55 | 88 | 1006.1 |
| 20260506133016 | 12 | 334 | 4.8 | 8.0 | 0.00 | 1.55 | 1.55 | 88 | 1006.1 |
| 20260506132716 | 12 | 339 | 4.8 | 9.7 | 0.00 | 1.55 | 1.55 | 88 | 1006.1 |
| 20260506132416 | 12 | 8 | 8.0 | 17.7 | 0.00 | 1.55 | 1.55 | 88 | 1006.1 |
| 20260506132116 | 12 | 345 | 8.0 | 12.9 | 0.00 | 1.55 | 1.55 | 88 | 1006.1 |
| 20260506131816 | 12 | 337 | 8.0 | 11.3 | 0.00 | 1.55 | 1.55 | 88 | 1006.0 |
| 20260506131559 | 12 | 342 | 6.4 | 12.9 | 0.00 | 1.55 | 1.55 | 88 | 1005.9 |
| 20260506131216 | 12 | 337 | 6.4 | 14.5 | 0.00 | 1.55 | 1.55 | 88 | 1005.9 |
| 20260506130956 | 12 | 314 | 6.4 | 12.9 | 0.00 | 1.55 | 1.55 | 89 | 1005.8 |
| 20260506130656 | 12 | 302 | 9.7 | 12.9 | 0.00 | 1.55 | 1.55 | 89 | 1005.8 |
| 20260506130316 | 12 | 300 | 6.4 | 14.5 | 0.00 | 1.55 | 1.55 | 89 | 1005.8 |
| 20260506130056 | 12 | 292 | 4.8 | 11.3 | 0.00 | 1.55 | 1.55 | 89 | 1005.8 |
| 20260506125716 | 12 | 283 | 6.4 | 11.3 | 0.00 | 1.55 | 1.55 | 89 | 1005.8 |
| 20260506125416 | 12 | 301 | 8.0 | 11.3 | 0.00 | 1.55 | 1.55 | 89 | 1005.9 |
| 20260506125119 | 12 | 289 | 4.8 | 9.7 | 0.00 | 1.55 | 1.55 | 89 | 1005.9 |
| 20260506124816 | 12 | 301 | 3.2 | 6.4 | 0.00 | 1.55 | 1.55 | 89 | 1006.0 |
| 20260506124556 | 12 | 294 | 6.4 | 9.7 | 0.00 | 1.55 | 1.55 | 89 | 1005.9 |
| 20260506124216 | 12 | 314 | 4.8 | 8.0 | 0.00 | 1.55 | 1.55 | 89 | 1005.8 |
| 20260506123916 | 12 | 304 | 4.8 | 12.9 | 0.00 | 1.55 | 1.55 | 89 | 1005.8 |
| 20260506123616 | 12 | 303 | 8.0 | 12.9 | 0.00 | 1.55 | 1.55 | 89 | 1005.9 |
| 20260506123316 | 12 | 321 | 4.8 | 11.3 | 0.00 | 1.55 | 1.55 | 89 | 1005.8 |
| 20260506123016 | 12 | 323 | 8.0 | 12.9 | 0.00 | 1.55 | 1.55 | 89 | 1005.7 |
| 20260506122716 | 12 | 326 | 8.0 | 12.9 | 0.00 | 1.55 | 1.55 | 89 | 1005.8 |
| 20260506122419 | 12 | 347 | 4.8 | 9.7 | 0.00 | 1.55 | 1.55 | 89 | 1005.7 |
| 20260506122116 | 12 | 10 | 4.8 | 11.3 | 0.00 | 1.55 | 1.55 | 90 | 1005.6 |
| 20260506121816 | 12 | 5 | 4.8 | 9.7 | 0.00 | 1.55 | 1.55 | 90 | 1005.6 |
| 20260506121516 | 12 | 337 | 6.4 | 11.3 | 0.00 | 1.55 | 1.55 | 90 | 1005.6 |
| 20260506121216 | 12 | 323 | 8.0 | 11.3 | 0.00 | 1.55 | 1.55 | 90 | 1005.5 |
| 20260506120916 | 12 | 323 | 6.4 | 11.3 | 0.00 | 1.57 | 1.55 | 90 | 1005.5 |
| 20260506120616 | 12 | 327 | 4.8 | 11.3 | 0.00 | 1.57 | 1.55 | 91 | 1005.5 |
| 20260506120316 | 12 | 329 | 4.8 | 11.3 | 0.00 | 1.57 | 1.55 | 91 | 1005.5 |
| 20260506120016 | 12 | 322 | 4.8 | 9.7 | 0.00 | 1.57 | 1.55 | 91 | 1005.4 |
| 20260506115719 | 11 | 326 | 6.4 | 11.3 | 0.00 | 1.57 | 1.55 | 91 | 1005.5 |
| 20260506115456 | 11 | 327 | 6.4 | 9.7 | 0.00 | 1.60 | 1.55 | 91 | 1005.6 |
| 20260506115116 | 11 | 327 | 4.8 | 9.7 | 0.00 | 1.60 | 1.55 | 91 | 1005.6 |
| 20260506114819 | 11 | 326 | 3.2 | 6.4 | 0.00 | 1.60 | 1.55 | 91 | 1005.6 |
| 20260506114516 | 11 | 354 | 1.6 | 6.4 | 0.00 | 1.60 | 1.55 | 91 | 1005.6 |
| 20260506114256 | 11 | 350 | 3.2 | 6.4 | 0.00 | 1.60 | 1.55 | 91 | 1005.5 |
| 20260506113956 | 11 | 357 | 3.2 | 9.7 | 0.00 | 1.60 | 1.55 | 91 | 1005.4 |
| 20260506113618 | 11 | 330 | 6.4 | 9.7 | 0.00 | 1.60 | 1.55 | 91 | 1005.4 |
| 20260506113356 | 11 | 330 | 6.4 | 9.7 | 0.00 | 1.60 | 1.55 | 91 | 1005.4 |
| 20260506113016 | 11 | 4 | 4.8 | 9.7 | 0.00 | 1.60 | 1.55 | 91 | 1005.3 |
| 20260506112716 | 11 | 12 | 8.0 | 14.5 | 0.00 | 1.60 | 1.55 | 91 | 1005.2 |
| 20260506112415 | 11 | 10 | 6.4 | 11.3 | 0.00 | 1.60 | 1.55 | 91 | 1005.1 |
| 20260506112116 | 11 | 355 | 8.0 | 14.5 | 0.00 | 1.60 | 1.55 | 91 | 1005.1 |
| 20260506111819 | 11 | 346 | 6.4 | 11.3 | 0.00 | 1.60 | 1.55 | 91 | 1005.1 |
| 20260506111516 | 11 | 359 | 6.4 | 9.7 | 0.00 | 1.60 | 1.55 | 91 | 1005.1 |
| 20260506111216 | 11 | 345 | 8.0 | 12.9 | 0.00 | 1.60 | 1.55 | 91 | 1005.0 |
| 20260506110916 | 11 | 332 | 9.7 | 16.1 | 0.00 | 1.60 | 1.55 | 91 | 1005.0 |
| 20260506110616 | 11 | 4 | 6.4 | 12.9 | 0.00 | 1.60 | 1.55 | 91 | 1004.9 |
| 20260506110356 | 11 | 14 | 6.4 | 12.9 | 0.00 | 1.60 | 1.55 | 91 | 1004.9 |
| 20260506110016 | 11 | 10 | 6.4 | 16.1 | 0.00 | 1.60 | 1.55 | 91 | 1004.9 |
| 20260506105716 | 11 | 15 | 6.4 | 16.1 | 0.00 | 1.63 | 1.55 | 91 | 1004.8 |
| 20260506105416 | 11 | 15 | 9.7 | 16.1 | 0.00 | 1.63 | 1.55 | 91 | 1004.7 |
| 20260506105159 | 11 | 6 | 8.0 | 16.1 | 0.00 | 1.63 | 1.55 | 91 | 1004.7 |
| 20260506104816 | 11 | 14 | 8.0 | 14.5 | 0.00 | 1.63 | 1.55 | 91 | 1004.7 |
| 20260506104516 | 11 | 20 | 6.4 | 11.3 | 0.00 | 1.63 | 1.55 | 91 | 1004.6 |
| 20260506104256 | 11 | 12 | 6.4 | 16.1 | 0.00 | 1.63 | 1.55 | 91 | 1004.6 |
| 20260506103916 | 11 | 9 | 4.8 | 11.3 | 0.00 | 1.63 | 1.55 | 91 | 1004.7 |
| 20260506103616 | 11 | 10 | 4.8 | 9.7 | 0.00 | 1.63 | 1.55 | 91 | 1004.6 |
| 20260506103316 | 11 | 17 | 6.4 | 11.3 | 0.00 | 1.63 | 1.55 | 91 | 1004.6 |
| 20260506103059 | 11 | 334 | 6.4 | 12.9 | 0.00 | 1.63 | 1.55 | 91 | 1004.6 |
| 20260506102716 | 11 | 354 | 6.4 | 9.7 | 0.00 | 1.63 | 1.55 | 91 | 1004.6 |
| 20260506102416 | 11 | 350 | 6.4 | 11.3 | 0.00 | 1.63 | 1.55 | 91 | 1004.5 |
| 20260506102116 | 11 | 3 | 4.8 | 11.3 | 0.00 | 1.65 | 1.55 | 91 | 1004.4 |
| 20260506101819 | 11 | 6 | 6.4 | 14.5 | 0.00 | 1.65 | 1.55 | 91 | 1004.4 |
| 20260506101516 | 11 | 16 | 6.4 | 9.7 | 0.00 | 1.65 | 1.55 | 91 | 1004.4 |
| 20260506101216 | 11 | 21 | 6.4 | 12.9 | 0.00 | 1.65 | 1.55 | 91 | 1004.3 |
| 20260506100916 | 11 | 3 | 4.8 | 12.9 | 0.00 | 1.65 | 1.55 | 91 | 1004.3 |
| 20260506100616 | 11 | 20 | 3.2 | 9.7 | 0.00 | 1.65 | 1.55 | 91 | 1004.2 |
| 20260506100516 | 11 | 23 | 3.2 | 8.0 | 0.00 | 1.65 | 1.55 | 91 | 1004.2 |
| 20260506100056 | 11 | 13 | 6.4 | 16.1 | 0.00 | 1.65 | 1.55 | 91 | 1004.1 |
| 20260506095716 | 11 | 7 | 4.8 | 9.7 | 0.00 | 1.65 | 1.55 | 91 | 1004.0 |
| 20260506095415 | 11 | 13 | 6.4 | 14.5 | 0.00 | 1.65 | 1.55 | 91 | 1004.0 |
| 20260506095116 | 11 | 9 | 6.4 | 16.1 | 0.00 | 1.65 | 1.55 | 91 | 1004.0 |
| 20260506094816 | 12 | 17 | 6.4 | 11.3 | 0.00 | 1.65 | 1.55 | 91 | 1004.0 |
| 20260506094516 | 11 | 9 | 3.2 | 6.4 | 0.00 | 1.65 | 1.55 | 91 | 1004.0 |
| 20260506094216 | 11 | 29 | 4.8 | 9.7 | 0.00 | 1.65 | 1.55 | 91 | 1004.0 |
| 20260506093915 | 11 | 43 | 4.8 | 8.0 | 0.00 | 1.65 | 1.55 | 91 | 1003.9 |
| 20260506093656 | 11 | 37 | 4.8 | 11.3 | 0.00 | 1.65 | 1.55 | 91 | 1003.8 |
| 20260506093359 | 11 | 18 | 6.4 | 11.3 | 0.00 | 1.65 | 1.55 | 91 | 1003.7 |
| 20260506093216 | 11 | 30 | 6.4 | 11.3 | 0.00 | 1.65 | 1.55 | 91 | 1003.7 |
| 20260506092715 | 11 | 39 | 3.2 | 8.0 | 0.00 | 1.65 | 1.55 | 91 | 1003.7 |
| 20260506092416 | 11 | 36 | 3.2 | 8.0 | 0.03 | 1.65 | 1.55 | 91 | 1003.7 |
| 20260506092156 | 11 | 41 | 4.8 | 11.3 | 0.03 | 1.65 | 1.55 | 91 | 1003.6 |
| 20260506091856 | 11 | 36 | 6.4 | 12.9 | 0.03 | 1.65 | 1.55 | 91 | 1003.5 |
| 20260506091515 | 11 | 46 | 4.8 | 9.7 | 0.03 | 1.65 | 1.55 | 91 | 1003.5 |
| 20260506091215 | 11 | 38 | 6.4 | 12.9 | 0.03 | 1.65 | 1.55 | 91 | 1003.5 |
| 20260506090916 | 11 | 30 | 8.0 | 14.5 | 0.03 | 1.65 | 1.55 | 91 | 1003.5 |
| 20260506090619 | 11 | 34 | 6.4 | 11.3 | 0.03 | 1.65 | 1.55 | 91 | 1003.4 |
| 20260506090356 | 11 | 32 | 4.8 | 11.3 | 0.03 | 1.65 | 1.55 | 91 | 1003.4 |
| 20260506090016 | 11 | 37 | 6.4 | 12.9 | 0.03 | 1.65 | 1.55 | 91 | 1003.4 |
| 20260506085756 | 11 | 42 | 6.4 | 11.3 | 0.05 | 1.65 | 1.55 | 91 | 1003.4 |
| 20260506085456 | 11 | 33 | 3.2 | 6.4 | 0.05 | 1.65 | 1.55 | 92 | 1003.4 |
| 20260506085115 | 11 | 37 | 3.2 | 6.4 | 0.05 | 1.65 | 1.55 | 92 | 1003.4 |
| 20260506084819 | 11 | 41 | 3.2 | 6.4 | 0.05 | 1.65 | 1.55 | 92 | 1003.4 |
| 20260506084516 | 11 | 44 | 6.4 | 11.3 | 0.05 | 1.65 | 1.55 | 92 | 1003.4 |
| 20260506084217 | 11 | 43 | 3.2 | 6.4 | 0.05 | 1.65 | 1.55 | 91 | 1003.3 |
| 20260506083916 | 11 | 41 | 4.8 | 8.0 | 0.05 | 1.65 | 1.55 | 91 | 1003.3 |
| 20260506083619 | 11 | 43 | 6.4 | 12.9 | 0.05 | 1.65 | 1.55 | 91 | 1003.4 |
| 20260506083356 | 11 | 42 | 3.2 | 6.4 | 0.05 | 1.65 | 1.55 | 91 | 1003.5 |
| 20260506083015 | 11 | 46 | 1.6 | 4.8 | 0.05 | 1.65 | 1.55 | 91 | 1003.5 |
| 20260506082759 | 11 | 59 | 4.8 | 6.4 | 0.05 | 1.65 | 1.55 | 91 | 1003.5 |
| 20260506082416 | 11 | 60 | 4.8 | 9.7 | 0.03 | 1.63 | 1.52 | 92 | 1003.5 |
| 20260506082116 | 11 | 40 | 3.2 | 6.4 | 0.03 | 1.63 | 1.52 | 92 | 1003.5 |
| 20260506081816 | 11 | 52 | 3.2 | 6.4 | 0.03 | 1.63 | 1.52 | 91 | 1003.4 |
| 20260506081516 | 11 | 69 | 3.2 | 9.7 | 0.03 | 1.63 | 1.52 | 91 | 1003.4 |
| 20260506081216 | 11 | 64 | 4.8 | 9.7 | 0.03 | 1.63 | 1.52 | 91 | 1003.4 |
| 20260506080915 | 11 | 69 | 6.4 | 12.9 | 0.03 | 1.63 | 1.52 | 91 | 1003.4 |
| 20260506080616 | 11 | 54 | 4.8 | 9.7 | 0.03 | 1.65 | 1.52 | 91 | 1003.4 |
| 20260506080316 | 11 | 59 | 4.8 | 14.5 | 0.05 | 1.65 | 1.52 | 91 | 1003.4 |
| 20260506073316 | 11 | 60 | 4.8 | 9.7 | 0.03 | 1.63 | 1.50 | 91 | 1003.5 |
| 20260506073015 | 11 | 64 | 4.8 | 9.7 | 0.03 | 1.63 | 1.50 | 91 | 1003.5 |
| 20260506072716 | 11 | 53 | 4.8 | 11.3 | 0.03 | 1.63 | 1.50 | 91 | 1003.5 |
| 20260506072419 | 11 | 64 | 4.8 | 11.3 | 0.03 | 1.63 | 1.50 | 92 | 1003.5 |
| 20260506072116 | 11 | 61 | 4.8 | 11.3 | 0.03 | 1.63 | 1.50 | 91 | 1003.5 |
| 20260506071816 | 11 | 65 | 4.8 | 12.9 | 0.03 | 1.65 | 1.50 | 91 | 1003.5 |
| 20260506071516 | 11 | 60 | 6.4 | 12.9 | 0.03 | 1.65 | 1.50 | 91 | 1003.5 |
| 20260506071216 | 11 | 71 | 3.2 | 8.0 | 0.03 | 1.65 | 1.50 | 91 | 1003.5 |
| 20260506070916 | 11 | 62 | 3.2 | 8.0 | 0.03 | 1.65 | 1.50 | 91 | 1003.5 |
| 20260506070618 | 11 | 52 | 3.2 | 6.4 | 0.03 | 1.65 | 1.50 | 91 | 1003.5 |
| 20260506070316 | 11 | 64 | 4.8 | 11.3 | 0.00 | 1.63 | 1.47 | 91 | 1003.6 |
| 20260506062415 | 11 | 50 | 6.4 | 12.9 | 0.03 | 1.63 | 1.47 | 91 | 1003.6 |
| 20260506062116 | 11 | 48 | 4.8 | 11.3 | 0.05 | 1.63 | 1.47 | 91 | 1003.6 |
| 20260506061816 | 11 | 52 | 6.4 | 12.9 | 0.05 | 1.63 | 1.47 | 91 | 1003.6 |
| 20260506061516 | 11 | 46 | 8.0 | 17.7 | 0.05 | 1.63 | 1.47 | 91 | 1003.7 |